Volver al catálogo

BREEZE-M R/B

ActivoHEO
NORAD 42943·ROCKET BODY·🇷🇺 Russia

Lanzado Sep 28, 2017 desde Baikonur Cosmodrome

Loading…

Próximos Pases (próximas 24 horas)

TLE

ActualizadoSource: Space-Track

Época: Sep 14, 2026, 07:57 UTC

1 42943U 17057B   26257.33172352 -.00000132  00000-0  00000-0 0  9997
2 42943  23.9358  45.6150 6086724 347.6575   2.2555  2.14919140 70349

Sigue BREEZE-M R/B en tiempo real con AllMySat

Download on the App Store